Location: Rosenheim
(47.8408°N, 12.2113°E)
Time: 09:55:22
(UTC+02:00)

ISS - Pass Details

Date: 11 February 2018
Orbit: 402 x 406 km, 51.6° (Epoch: 18 June)

Event Time Altitude Azimuth Distance (km) Brightness Sun altitude
Rises 19:17:03 0° 285° (WNW) 2,320 1.5 -18.9°
Reaches altitude 10° 19:19:41 10° 263° (W) 1,457 0.2 -19.3°
Maximum altitude 19:21:46 16° 223° (SW) 1,153 -1.0 -19.6°
Drops below altitude 10° 19:23:50 10° 183° (S) 1,453 -1.0 -20.0°
Enters shadow 19:24:05 - 180° (S) 1,522 -0.9 -20.0°
